Year,Month,Day,Hour,Minute,Value (Times are PST for temperature in C)
2013,09,26,00,00,11.50
2013,09,26,00,01,11.50
2013,09,26,00,02,11.50
2013,09,26,00,03,11.50
2013,09,26,00,04,11.50
2013,09,26,00,05,11.50
2013,09,26,00,06,11.50
2013,09,26,00,07,11.50
2013,09,26,00,08,11.50
2013,09,26,00,09,11.60
2013,09,26,00,10,11.50
2013,09,26,00,11,11.50
2013,09,26,00,12,11.50
2013,09,26,00,13,11.50
2013,09,26,00,14,11.50
2013,09,26,00,15,11.50
2013,09,26,00,16,11.40
2013,09,26,00,17,11.40
2013,09,26,00,18,11.40
2013,09,26,00,19,11.40
2013,09,26,00,20,11.30
2013,09,26,00,21,11.30
2013,09,26,00,22,11.30
2013,09,26,00,23,11.30
2013,09,26,00,24,11.30
2013,09,26,00,25,11.30
2013,09,26,00,26,11.20
2013,09,26,00,27,11.20
2013,09,26,00,28,11.20
2013,09,26,00,29,11.20
2013,09,26,00,30,11.20
2013,09,26,00,31,11.20
2013,09,26,00,32,11.20
2013,09,26,00,33,11.20
2013,09,26,00,34,11.20
2013,09,26,00,35,11.20
2013,09,26,00,36,11.20
2013,09,26,00,37,11.20
2013,09,26,00,38,11.20
2013,09,26,00,39,11.20
2013,09,26,00,40,11.20
2013,09,26,00,41,11.20
2013,09,26,00,42,11.20
2013,09,26,00,43,11.20
2013,09,26,00,44,11.20
2013,09,26,00,45,11.20
2013,09,26,00,46,11.20
2013,09,26,00,47,11.10
2013,09,26,00,48,11.10
2013,09,26,00,49,11.10
2013,09,26,00,50,11.10
2013,09,26,00,51,11.10
2013,09,26,00,52,11.00
2013,09,26,00,53,11.00
2013,09,26,00,54,10.90
2013,09,26,00,55,10.90
2013,09,26,00,56,10.90
2013,09,26,00,57,10.90
2013,09,26,00,58,10.80
2013,09,26,00,59,10.80
2013,09,26,01,00,10.80
2013,09,26,01,01,10.80
2013,09,26,01,02,10.80
2013,09,26,01,03,10.70
2013,09,26,01,04,10.70
2013,09,26,01,05,10.70
2013,09,26,01,06,10.70
2013,09,26,01,07,10.70
2013,09,26,01,08,10.60
2013,09,26,01,09,10.60
2013,09,26,01,10,10.60
2013,09,26,01,11,10.50
2013,09,26,01,12,10.50
2013,09,26,01,13,10.40
2013,09,26,01,14,10.40
2013,09,26,01,15,10.40
2013,09,26,01,16,10.40
2013,09,26,01,17,10.30
2013,09,26,01,18,10.30
2013,09,26,01,19,10.30
2013,09,26,01,20,10.30
2013,09,26,01,21,10.30
2013,09,26,01,22,10.20
2013,09,26,01,23,10.20
2013,09,26,01,24,10.20
2013,09,26,01,25,10.20
2013,09,26,01,26,10.10
2013,09,26,01,27,10.10
2013,09,26,01,28,10.10
2013,09,26,01,29,10.10
2013,09,26,01,30,10.10
2013,09,26,01,31,10.00
2013,09,26,01,32,10.00
2013,09,26,01,33,10.00
2013,09,26,01,34,10.00
2013,09,26,01,35,9.90
2013,09,26,01,36,9.90
2013,09,26,01,37,9.90
2013,09,26,01,38,9.90
2013,09,26,01,39,9.90
2013,09,26,01,40,9.90
2013,09,26,01,41,9.90
2013,09,26,01,42,9.90
2013,09,26,01,43,9.90
2013,09,26,01,44,9.80
2013,09,26,01,45,9.80
2013,09,26,01,46,9.80
2013,09,26,01,47,9.80
2013,09,26,01,48,9.80
2013,09,26,01,49,9.80
2013,09,26,01,50,9.70
2013,09,26,01,51,9.70
2013,09,26,01,52,9.70
2013,09,26,01,53,9.70
2013,09,26,01,54,9.70
2013,09,26,01,55,9.60
2013,09,26,01,56,9.60
2013,09,26,01,57,9.60
2013,09,26,01,58,9.60
2013,09,26,01,59,9.60
2013,09,26,02,00,9.60
2013,09,26,02,01,9.50
2013,09,26,02,02,9.50
2013,09,26,02,03,9.50
2013,09,26,02,04,9.40
2013,09,26,02,05,9.40
2013,09,26,02,06,9.40
2013,09,26,02,07,9.40
2013,09,26,02,08,9.30
2013,09,26,02,09,9.30
2013,09,26,02,10,9.30
2013,09,26,02,11,9.30
2013,09,26,02,12,9.30
2013,09,26,02,13,9.30
2013,09,26,02,14,9.20
2013,09,26,02,15,9.20
2013,09,26,02,16,9.20
2013,09,26,02,17,9.20
2013,09,26,02,18,9.20
2013,09,26,02,19,9.20
2013,09,26,02,20,9.20
2013,09,26,02,21,9.10
2013,09,26,02,22,9.10
2013,09,26,02,23,9.10
2013,09,26,02,24,9.10
2013,09,26,02,25,9.10
2013,09,26,02,26,9.00
2013,09,26,02,27,9.00
2013,09,26,02,28,9.00
2013,09,26,02,29,9.00
2013,09,26,02,30,8.90
2013,09,26,02,31,8.90
2013,09,26,02,32,8.90
2013,09,26,02,33,8.90
2013,09,26,02,34,8.90
2013,09,26,02,35,8.90
2013,09,26,02,36,8.80
2013,09,26,02,37,8.80
2013,09,26,02,38,8.80
2013,09,26,02,39,8.80
2013,09,26,02,40,8.80
2013,09,26,02,41,8.80
2013,09,26,02,42,8.70
2013,09,26,02,43,8.70
2013,09,26,02,44,8.70
2013,09,26,02,45,8.70
2013,09,26,02,46,8.70
2013,09,26,02,47,8.70
2013,09,26,02,48,8.70
2013,09,26,02,49,8.70
2013,09,26,02,50,8.70
2013,09,26,02,51,8.70
2013,09,26,02,52,8.70
2013,09,26,02,53,8.70
2013,09,26,02,54,8.70
2013,09,26,02,55,8.70
2013,09,26,02,56,8.70
2013,09,26,02,57,8.70
2013,09,26,02,58,8.70
2013,09,26,02,59,8.70
2013,09,26,03,00,8.70
2013,09,26,03,01,8.80
2013,09,26,03,02,8.80
2013,09,26,03,06,8.70
2013,09,26,03,07,8.70
2013,09,26,03,08,8.80
2013,09,26,03,09,8.80
2013,09,26,03,10,8.80
2013,09,26,03,11,8.80
2013,09,26,03,12,8.80
2013,09,26,03,13,8.80
2013,09,26,03,14,8.80
2013,09,26,03,15,8.80
2013,09,26,03,16,8.80
2013,09,26,03,17,8.90
2013,09,26,03,18,8.90
2013,09,26,03,19,8.90
2013,09,26,03,20,8.90
2013,09,26,03,21,8.90
2013,09,26,03,22,8.90
2013,09,26,03,23,8.90
2013,09,26,03,24,8.90
2013,09,26,03,25,8.90
2013,09,26,03,26,8.90
2013,09,26,03,27,8.80
2013,09,26,03,28,8.80
2013,09,26,03,29,8.80
2013,09,26,03,30,8.80
2013,09,26,03,31,8.80
2013,09,26,03,32,8.80
2013,09,26,03,33,8.80
2013,09,26,03,34,8.80
2013,09,26,03,35,8.80
2013,09,26,03,36,8.70
2013,09,26,03,37,8.70
2013,09,26,03,38,8.70
2013,09,26,03,39,8.70
2013,09,26,03,40,8.70
2013,09,26,03,41,8.70
2013,09,26,03,42,8.70
2013,09,26,03,43,8.70
2013,09,26,03,44,8.70
2013,09,26,03,45,8.70
2013,09,26,03,46,8.60
2013,09,26,03,47,8.60
2013,09,26,03,48,8.60
2013,09,26,03,49,8.60
2013,09,26,03,50,8.60
2013,09,26,03,51,8.60
2013,09,26,03,52,8.60
2013,09,26,03,53,8.60
2013,09,26,03,54,8.60
2013,09,26,03,55,8.60
2013,09,26,03,56,8.60
2013,09,26,03,57,8.60
2013,09,26,03,58,8.50
2013,09,26,03,59,8.50
2013,09,26,04,00,8.50
2013,09,26,04,01,8.50
2013,09,26,04,02,8.50
2013,09,26,04,03,8.40
2013,09,26,04,04,8.40
2013,09,26,04,05,8.40
2013,09,26,04,06,8.40
2013,09,26,04,07,8.40
2013,09,26,04,08,8.40
2013,09,26,04,09,8.40
2013,09,26,04,10,8.40
2013,09,26,04,11,8.40
2013,09,26,04,12,8.50
2013,09,26,04,13,8.50
2013,09,26,04,14,8.50
2013,09,26,04,15,8.60
2013,09,26,04,16,8.60
2013,09,26,04,17,8.60
2013,09,26,04,18,8.60
2013,09,26,04,19,8.70
2013,09,26,04,20,8.70
2013,09,26,04,21,8.70
2013,09,26,04,22,8.70
2013,09,26,04,23,8.80
2013,09,26,04,24,8.80
2013,09,26,04,25,8.80
2013,09,26,04,26,8.80
2013,09,26,04,27,8.80
2013,09,26,04,28,8.90
2013,09,26,04,29,8.90
2013,09,26,04,30,8.90
2013,09,26,04,31,8.90
2013,09,26,04,32,8.90
2013,09,26,04,33,8.90
2013,09,26,04,34,9.00
2013,09,26,04,35,9.00
2013,09,26,04,36,9.00
2013,09,26,04,37,9.00
2013,09,26,04,38,9.00
2013,09,26,04,39,9.00
2013,09,26,04,40,9.00
2013,09,26,04,41,9.00
2013,09,26,04,42,9.00
2013,09,26,04,43,9.00
2013,09,26,04,44,9.00
2013,09,26,04,45,9.00
2013,09,26,04,46,9.00
2013,09,26,04,47,9.00
2013,09,26,04,48,9.00
2013,09,26,04,49,9.00
2013,09,26,04,50,9.00
2013,09,26,04,51,9.10
2013,09,26,04,52,9.10
2013,09,26,04,53,9.10
2013,09,26,04,54,9.10
2013,09,26,04,55,9.00
2013,09,26,04,56,9.00
2013,09,26,04,57,9.00
2013,09,26,04,58,9.00
2013,09,26,04,59,9.00
2013,09,26,05,00,8.90
2013,09,26,05,01,8.90
2013,09,26,05,02,8.90
2013,09,26,05,03,8.90
2013,09,26,05,04,8.80
2013,09,26,05,05,8.80
2013,09,26,05,06,8.80
2013,09,26,05,07,8.70
2013,09,26,05,08,8.70
2013,09,26,05,09,8.60
2013,09,26,05,10,8.60
2013,09,26,05,11,8.50
2013,09,26,05,12,8.50
2013,09,26,05,13,8.40
2013,09,26,05,14,8.40
2013,09,26,05,15,8.40
2013,09,26,05,16,8.30
2013,09,26,05,17,8.30
2013,09,26,05,18,8.30
2013,09,26,05,19,8.30
2013,09,26,05,20,8.30
2013,09,26,05,21,8.30
2013,09,26,05,22,8.30
2013,09,26,05,23,8.30
2013,09,26,05,24,8.20
2013,09,26,05,25,8.20
2013,09,26,05,26,8.20
2013,09,26,05,27,8.20
2013,09,26,05,28,8.20
2013,09,26,05,29,8.20
2013,09,26,05,30,8.20
2013,09,26,05,31,8.20
2013,09,26,05,32,8.10
2013,09,26,05,33,8.10
2013,09,26,05,34,8.10
2013,09,26,05,35,8.10
2013,09,26,05,36,8.10
2013,09,26,05,37,8.10
2013,09,26,05,38,8.10
2013,09,26,05,39,8.00
2013,09,26,05,40,8.00
2013,09,26,05,41,8.00
2013,09,26,05,42,8.00
2013,09,26,05,43,8.00
2013,09,26,05,44,7.90
2013,09,26,05,45,7.90
2013,09,26,05,46,7.90
2013,09,26,05,47,7.90
2013,09,26,05,48,7.90
2013,09,26,05,49,7.90
2013,09,26,05,50,7.90
2013,09,26,05,51,7.90
2013,09,26,05,52,7.80
2013,09,26,05,53,7.80
2013,09,26,05,54,7.80
2013,09,26,05,55,7.80
2013,09,26,05,56,7.80
2013,09,26,05,57,7.80
2013,09,26,05,58,7.80
2013,09,26,05,59,7.80
2013,09,26,06,00,7.80
2013,09,26,06,01,7.80
2013,09,26,06,02,7.80
2013,09,26,06,03,7.80
2013,09,26,06,04,7.80
2013,09,26,06,05,7.80
2013,09,26,06,06,7.80
2013,09,26,06,07,7.80
2013,09,26,06,08,7.80
2013,09,26,06,09,7.80
2013,09,26,06,10,7.80
2013,09,26,06,11,7.80
2013,09,26,06,12,7.80
2013,09,26,06,13,7.80
2013,09,26,06,14,7.80
2013,09,26,06,15,7.80
2013,09,26,06,16,7.80
2013,09,26,06,17,7.80
2013,09,26,06,18,7.80
2013,09,26,06,19,7.80
2013,09,26,06,20,7.80
2013,09,26,06,21,7.80
2013,09,26,06,22,7.80
2013,09,26,06,23,7.80
2013,09,26,06,24,7.80
2013,09,26,06,25,7.70
2013,09,26,06,26,7.70
2013,09,26,06,27,7.70
2013,09,26,06,28,7.70
2013,09,26,06,29,7.70
2013,09,26,06,30,7.70
2013,09,26,06,31,7.70
2013,09,26,06,32,7.60
2013,09,26,06,33,7.60
2013,09,26,06,34,7.60
2013,09,26,06,35,7.60
2013,09,26,06,36,7.50
2013,09,26,06,37,7.50
2013,09,26,06,38,7.50
2013,09,26,06,39,7.50
2013,09,26,06,40,7.50
2013,09,26,06,41,7.50
2013,09,26,06,42,7.50
2013,09,26,06,43,7.60
2013,09,26,06,44,7.60
2013,09,26,06,45,7.60
2013,09,26,06,46,7.60
2013,09,26,06,47,7.60
2013,09,26,06,48,7.60
2013,09,26,06,49,7.60
2013,09,26,06,50,7.60
2013,09,26,06,51,7.60
2013,09,26,06,52,7.60
2013,09,26,06,53,7.60
2013,09,26,06,54,7.60
2013,09,26,06,55,7.60
2013,09,26,06,56,7.60
2013,09,26,06,57,7.60
2013,09,26,06,58,7.70
2013,09,26,06,59,7.70
2013,09,26,07,00,7.70
2013,09,26,07,01,7.70
2013,09,26,07,02,7.70
2013,09,26,07,03,7.70
2013,09,26,07,04,7.70
2013,09,26,07,05,7.70
2013,09,26,07,06,7.70
2013,09,26,07,07,7.70
2013,09,26,07,08,7.70
2013,09,26,07,09,7.70
2013,09,26,07,10,7.70
2013,09,26,07,11,7.70
2013,09,26,07,12,7.70
2013,09,26,07,13,7.70
2013,09,26,07,14,7.70
2013,09,26,07,15,7.70
2013,09,26,07,16,7.70
2013,09,26,07,17,7.70
2013,09,26,07,18,7.70
2013,09,26,07,19,7.70
2013,09,26,07,20,7.70
2013,09,26,07,21,7.70
2013,09,26,07,22,7.70
2013,09,26,07,23,7.70
2013,09,26,07,24,7.60
2013,09,26,07,25,7.60
2013,09,26,07,26,7.60
2013,09,26,07,27,7.60
2013,09,26,07,28,7.60
2013,09,26,07,29,7.60
2013,09,26,07,30,7.60
2013,09,26,07,31,7.60
2013,09,26,07,32,7.60
2013,09,26,07,33,7.60
2013,09,26,07,34,7.60
2013,09,26,07,35,7.60
2013,09,26,07,36,7.60
2013,09,26,07,37,7.60
2013,09,26,07,38,7.60
2013,09,26,07,39,7.60
2013,09,26,07,40,7.60
2013,09,26,07,41,7.60
2013,09,26,07,42,7.60
2013,09,26,07,43,7.60
2013,09,26,07,44,7.60
2013,09,26,07,45,7.60
2013,09,26,07,46,7.60
2013,09,26,07,47,7.60
2013,09,26,07,48,7.60
2013,09,26,07,49,7.60
2013,09,26,07,50,7.60
2013,09,26,07,51,7.60
2013,09,26,07,52,7.70
2013,09,26,07,53,7.70
2013,09,26,07,54,7.70
2013,09,26,07,55,7.70
2013,09,26,07,56,7.80
2013,09,26,07,57,7.80
2013,09,26,07,58,7.80
2013,09,26,07,59,7.90
2013,09,26,08,00,7.90
2013,09,26,08,01,7.90
2013,09,26,08,02,8.00
2013,09,26,08,03,8.00
2013,09,26,08,04,8.00
2013,09,26,08,05,8.10
2013,09,26,08,06,8.10
2013,09,26,08,07,8.10
2013,09,26,08,08,8.10
2013,09,26,08,09,8.10
2013,09,26,08,10,8.10
2013,09,26,08,11,8.20
2013,09,26,08,12,8.20
2013,09,26,08,13,8.20
2013,09,26,08,14,8.20
2013,09,26,08,15,8.20
2013,09,26,08,16,8.30
2013,09,26,08,17,8.30
2013,09,26,08,18,8.30
2013,09,26,08,19,8.30
2013,09,26,08,20,8.30
2013,09,26,08,21,8.30
2013,09,26,08,22,8.40
2013,09,26,08,23,8.40
2013,09,26,08,24,8.50
2013,09,26,08,25,8.60
2013,09,26,08,26,8.60
2013,09,26,08,27,8.60
2013,09,26,08,28,8.70
2013,09,26,08,29,8.70
2013,09,26,08,30,8.70
2013,09,26,08,31,8.70
2013,09,26,08,32,8.70
2013,09,26,08,33,8.80
2013,09,26,08,34,8.80
2013,09,26,08,35,8.80
2013,09,26,08,36,8.90
2013,09,26,08,37,8.90
2013,09,26,08,38,8.90
2013,09,26,08,39,9.00
2013,09,26,08,40,9.00
2013,09,26,08,41,9.00
2013,09,26,08,42,9.10
2013,09,26,08,43,9.10
2013,09,26,08,44,9.10
2013,09,26,08,45,9.20
2013,09,26,08,46,9.20
2013,09,26,08,47,9.20
2013,09,26,08,48,9.30
2013,09,26,08,49,9.30
2013,09,26,08,50,9.40
2013,09,26,08,51,9.50
2013,09,26,08,52,9.60
2013,09,26,08,53,9.60
2013,09,26,08,54,9.70
2013,09,26,08,55,9.80
2013,09,26,08,56,9.90
2013,09,26,08,57,10.00
2013,09,26,08,58,10.00
2013,09,26,08,59,10.10
2013,09,26,09,00,10.20
2013,09,26,09,01,10.30
2013,09,26,09,02,10.40
2013,09,26,09,03,10.50
2013,09,26,09,04,10.50
2013,09,26,09,05,10.60
2013,09,26,09,06,10.70
2013,09,26,09,07,10.80
2013,09,26,09,08,10.80
2013,09,26,09,09,10.90
2013,09,26,09,10,11.00
2013,09,26,09,11,11.00
2013,09,26,09,12,11.10
2013,09,26,09,13,11.20
2013,09,26,09,14,11.20
2013,09,26,09,15,11.30
2013,09,26,09,16,11.40
2013,09,26,09,17,11.40
2013,09,26,09,18,11.50
2013,09,26,09,19,11.50
2013,09,26,09,20,11.60
2013,09,26,09,21,11.70
2013,09,26,09,22,11.70
2013,09,26,09,23,11.70
2013,09,26,09,24,11.80
2013,09,26,09,25,11.80
2013,09,26,09,26,11.80
2013,09,26,09,27,11.90
2013,09,26,09,28,11.90
2013,09,26,09,29,12.00
2013,09,26,09,30,12.10
2013,09,26,09,31,12.20
2013,09,26,09,32,12.20
2013,09,26,09,33,12.30
2013,09,26,09,34,12.40
2013,09,26,09,35,12.50
2013,09,26,09,36,12.50
2013,09,26,09,37,12.60
2013,09,26,09,38,12.60
2013,09,26,09,39,12.60
2013,09,26,09,40,12.70
2013,09,26,09,41,12.70
2013,09,26,09,42,12.80
2013,09,26,09,43,12.90
2013,09,26,09,44,12.90
2013,09,26,09,45,13.00
2013,09,26,09,46,13.00
2013,09,26,09,47,13.10
2013,09,26,09,48,13.10
2013,09,26,09,49,13.20
2013,09,26,09,50,13.20
2013,09,26,09,51,13.30
2013,09,26,09,52,13.30
2013,09,26,09,53,13.30
2013,09,26,09,54,13.40
2013,09,26,09,55,13.40
2013,09,26,09,56,13.40
2013,09,26,09,57,13.40
2013,09,26,09,58,13.50
2013,09,26,09,59,13.50
2013,09,26,10,00,13.50
2013,09,26,10,01,13.50
2013,09,26,10,02,13.60
2013,09,26,10,03,13.50
2013,09,26,10,04,13.60
2013,09,26,10,05,13.60
2013,09,26,10,06,13.70
2013,09,26,10,07,13.80
2013,09,26,10,08,13.90
2013,09,26,10,09,13.90
2013,09,26,10,10,14.00
2013,09,26,10,11,14.00
2013,09,26,10,12,14.00
2013,09,26,10,13,14.00
2013,09,26,10,14,14.00
2013,09,26,10,15,14.00
2013,09,26,10,16,14.00
2013,09,26,10,17,14.00
2013,09,26,10,18,14.10
2013,09,26,10,19,14.10
2013,09,26,10,20,14.10
2013,09,26,10,21,14.10
2013,09,26,10,22,14.20
2013,09,26,10,23,14.20
2013,09,26,10,24,14.20
2013,09,26,10,25,14.20
2013,09,26,10,26,14.20
2013,09,26,10,27,14.20
2013,09,26,10,28,14.20
2013,09,26,10,29,14.20
2013,09,26,10,30,14.30
2013,09,26,10,31,14.40
2013,09,26,10,32,14.50
2013,09,26,10,33,14.50
2013,09,26,10,34,14.50
2013,09,26,10,35,14.60
2013,09,26,10,36,14.60
2013,09,26,10,37,14.70
2013,09,26,10,38,14.70
2013,09,26,10,39,14.80
2013,09,26,10,40,14.80
2013,09,26,10,41,14.80
2013,09,26,10,42,15.00
2013,09,26,10,43,15.00
2013,09,26,10,44,15.00
2013,09,26,10,45,15.00
2013,09,26,10,46,15.00
2013,09,26,10,47,15.00
2013,09,26,10,48,15.00
2013,09,26,10,49,15.00
2013,09,26,10,50,15.00
2013,09,26,10,51,15.00
2013,09,26,10,52,15.10
2013,09,26,10,53,15.10
2013,09,26,10,54,15.20
2013,09,26,10,55,15.30
2013,09,26,10,56,15.30
2013,09,26,10,57,15.40
2013,09,26,10,58,15.30
2013,09,26,10,59,15.30
2013,09,26,11,00,15.40
2013,09,26,11,01,15.40
2013,09,26,11,02,15.40
2013,09,26,11,03,15.50
2013,09,26,11,04,15.60
2013,09,26,11,05,15.50
2013,09,26,11,06,15.60
2013,09,26,11,07,15.50
2013,09,26,11,08,15.50
2013,09,26,11,09,15.40
2013,09,26,11,10,15.40
2013,09,26,11,11,15.50
2013,09,26,11,12,15.50
2013,09,26,11,13,15.50
2013,09,26,11,14,15.50
2013,09,26,11,15,15.50
2013,09,26,11,16,15.50
2013,09,26,11,17,15.50
2013,09,26,11,18,15.50
2013,09,26,11,19,15.60
2013,09,26,11,20,15.60
2013,09,26,11,21,15.60
2013,09,26,11,22,15.60
2013,09,26,11,23,15.60
2013,09,26,11,24,15.60
2013,09,26,11,25,15.60
2013,09,26,11,26,15.70
2013,09,26,11,27,15.70
2013,09,26,11,28,15.80
2013,09,26,11,29,15.90
2013,09,26,11,30,15.90
2013,09,26,11,31,16.00
2013,09,26,11,32,16.00
2013,09,26,11,33,16.00
2013,09,26,11,34,15.90
2013,09,26,11,35,15.90
2013,09,26,11,36,15.90
2013,09,26,11,37,15.90
2013,09,26,11,38,15.90
2013,09,26,11,39,15.90
2013,09,26,11,40,15.90
2013,09,26,11,41,15.90
2013,09,26,11,42,15.90
2013,09,26,11,43,15.90
2013,09,26,11,44,15.90
2013,09,26,11,45,15.90
2013,09,26,11,46,15.90
2013,09,26,11,47,15.90
2013,09,26,11,48,15.90
2013,09,26,11,49,15.90
2013,09,26,11,50,15.90
2013,09,26,11,51,15.90
2013,09,26,11,52,15.90
2013,09,26,11,53,15.90
2013,09,26,11,54,15.90
2013,09,26,11,55,15.90
2013,09,26,11,56,15.90
2013,09,26,11,57,15.90
2013,09,26,11,58,15.90
2013,09,26,11,59,16.00
2013,09,26,12,00,16.10
2013,09,26,12,01,16.10
2013,09,26,12,02,16.20
2013,09,26,12,03,16.20
2013,09,26,12,04,16.30
2013,09,26,12,05,16.30
2013,09,26,12,06,16.30
2013,09,26,12,07,16.30
2013,09,26,12,08,16.30
2013,09,26,12,09,16.30
2013,09,26,12,10,16.30
2013,09,26,12,11,16.20
2013,09,26,12,12,16.30
2013,09,26,12,13,16.30
2013,09,26,12,14,16.30
2013,09,26,12,15,16.30
2013,09,26,12,16,16.30
2013,09,26,12,17,16.30
2013,09,26,12,18,16.30
2013,09,26,12,19,16.30
2013,09,26,12,20,16.30
2013,09,26,12,21,16.30
2013,09,26,12,22,16.30
2013,09,26,12,23,16.30
2013,09,26,12,24,16.30
2013,09,26,12,25,16.40
2013,09,26,12,26,16.40
2013,09,26,12,27,16.40
2013,09,26,12,28,16.50
2013,09,26,12,29,16.50
2013,09,26,12,30,16.50
2013,09,26,12,31,16.50
2013,09,26,12,32,16.50
2013,09,26,12,33,16.60
2013,09,26,12,34,16.60
2013,09,26,12,35,16.60
2013,09,26,12,36,16.60
2013,09,26,12,37,16.70
2013,09,26,12,38,16.60
2013,09,26,12,39,16.60
2013,09,26,12,40,16.50
2013,09,26,12,41,16.40
2013,09,26,12,42,16.40
2013,09,26,12,43,16.40
2013,09,26,12,44,16.40
2013,09,26,12,45,16.40
2013,09,26,12,46,16.40
2013,09,26,12,47,16.30
2013,09,26,12,48,16.30
2013,09,26,12,49,16.30
2013,09,26,12,50,16.30
2013,09,26,12,51,16.30
2013,09,26,12,52,16.30
2013,09,26,12,53,16.30
2013,09,26,12,54,16.30
2013,09,26,12,55,16.30
2013,09,26,12,56,16.30
2013,09,26,12,57,16.40
2013,09,26,12,58,16.40
2013,09,26,12,59,16.40
2013,09,26,13,00,16.40
2013,09,26,13,01,16.40
2013,09,26,13,02,16.40
2013,09,26,13,03,16.40
2013,09,26,13,04,16.50
2013,09,26,13,05,16.50
2013,09,26,13,06,16.60
2013,09,26,13,07,16.70
2013,09,26,13,08,16.70
2013,09,26,13,09,16.70
2013,09,26,13,10,16.70
2013,09,26,13,11,16.80
2013,09,26,13,12,16.80
2013,09,26,13,13,16.90
2013,09,26,13,14,17.00
2013,09,26,13,15,17.10
2013,09,26,13,16,17.20
2013,09,26,13,17,17.30
2013,09,26,13,18,17.40
2013,09,26,13,19,17.40
2013,09,26,13,20,17.50
2013,09,26,13,21,17.50
2013,09,26,13,22,17.60
2013,09,26,13,23,17.60
2013,09,26,13,24,17.60
2013,09,26,13,25,17.70
2013,09,26,13,26,17.80
2013,09,26,13,27,17.80
2013,09,26,13,28,17.80
2013,09,26,13,29,17.90
2013,09,26,13,30,17.90
2013,09,26,13,31,17.90
2013,09,26,13,32,17.90
2013,09,26,13,33,17.90
2013,09,26,13,34,17.80
2013,09,26,13,35,17.80
2013,09,26,13,36,17.80
2013,09,26,13,37,17.90
2013,09,26,13,38,17.90
2013,09,26,13,39,17.90
2013,09,26,13,40,17.90
2013,09,26,13,41,17.90
2013,09,26,13,42,17.80
2013,09,26,13,43,17.80
2013,09,26,13,44,17.70
2013,09,26,13,45,17.60
2013,09,26,13,46,17.50
2013,09,26,13,47,17.50
2013,09,26,13,48,17.40
2013,09,26,13,49,17.40
2013,09,26,13,50,17.40
2013,09,26,13,51,17.40
2013,09,26,13,52,17.30
2013,09,26,13,53,17.30
2013,09,26,13,54,17.30
2013,09,26,13,55,17.30
2013,09,26,13,56,17.30
2013,09,26,13,57,17.30
2013,09,26,13,58,17.30
2013,09,26,13,59,17.30
2013,09,26,14,00,17.20
2013,09,26,14,01,17.20
2013,09,26,14,02,17.30
2013,09,26,14,03,17.30
2013,09,26,14,04,17.30
2013,09,26,14,05,17.30
2013,09,26,14,06,17.30
2013,09,26,14,07,17.30
2013,09,26,14,08,17.30
2013,09,26,14,09,17.30
2013,09,26,14,10,17.30
2013,09,26,14,11,17.40
2013,09,26,14,12,17.40
2013,09,26,14,13,17.30
2013,09,26,14,14,17.30
2013,09,26,14,15,17.30
2013,09,26,14,16,17.30
2013,09,26,14,17,17.40
2013,09,26,14,18,17.40
2013,09,26,14,19,17.50
2013,09,26,14,20,17.50
2013,09,26,14,21,17.60
2013,09,26,14,22,17.60
2013,09,26,14,23,17.70
2013,09,26,14,24,17.70
2013,09,26,14,25,17.70
2013,09,26,14,26,17.80
2013,09,26,14,27,17.80
2013,09,26,14,28,17.80
2013,09,26,14,29,17.80
2013,09,26,14,30,17.80
2013,09,26,14,31,17.80
2013,09,26,14,32,17.80
2013,09,26,14,33,17.70
2013,09,26,14,34,17.60
2013,09,26,14,35,17.50
2013,09,26,14,36,17.40
2013,09,26,14,37,17.40
2013,09,26,14,38,17.30
2013,09,26,14,39,17.30
2013,09,26,14,40,17.30
2013,09,26,14,41,17.40
2013,09,26,14,42,17.40
2013,09,26,14,43,17.50
2013,09,26,14,44,17.60
2013,09,26,14,45,17.70
2013,09,26,14,46,17.80
2013,09,26,14,47,17.70
2013,09,26,14,48,17.80
2013,09,26,14,49,17.80
2013,09,26,14,50,17.80
2013,09,26,14,51,17.80
2013,09,26,14,52,17.90
2013,09,26,14,53,17.90
2013,09,26,14,54,17.90
2013,09,26,14,55,18.00
2013,09,26,14,56,18.00
2013,09,26,14,57,18.10
2013,09,26,14,58,18.20
2013,09,26,14,59,18.30
2013,09,26,15,00,18.30
2013,09,26,15,01,18.30
2013,09,26,15,02,18.30
2013,09,26,15,03,18.30
2013,09,26,15,04,18.30
2013,09,26,15,05,18.20
2013,09,26,15,06,18.20
2013,09,26,15,07,18.30
2013,09,26,15,08,18.30
2013,09,26,15,09,18.30
2013,09,26,15,10,18.20
2013,09,26,15,11,18.20
2013,09,26,15,12,18.20
2013,09,26,15,13,18.10
2013,09,26,15,14,18.10
2013,09,26,15,15,18.00
2013,09,26,15,16,17.90
2013,09,26,15,17,17.90
2013,09,26,15,18,17.90
2013,09,26,15,19,17.80
2013,09,26,15,20,17.90
2013,09,26,15,21,17.90
2013,09,26,15,22,17.90
2013,09,26,15,23,17.80
2013,09,26,15,24,17.80
2013,09,26,15,25,17.90
2013,09,26,15,26,17.90
2013,09,26,15,27,17.90
2013,09,26,15,28,17.90
2013,09,26,15,29,18.00
2013,09,26,15,30,18.10
2013,09,26,15,31,18.10
2013,09,26,15,32,18.00
2013,09,26,15,33,18.00
2013,09,26,15,34,18.00
2013,09,26,15,35,18.00
2013,09,26,15,36,18.00
2013,09,26,15,37,18.00
2013,09,26,15,38,17.90
2013,09,26,15,39,17.90
2013,09,26,15,40,17.80
2013,09,26,15,41,17.80
2013,09,26,15,42,17.80
2013,09,26,15,43,17.80
2013,09,26,15,44,17.80
2013,09,26,15,45,17.90
2013,09,26,15,46,17.90
2013,09,26,15,47,17.90
2013,09,26,15,48,18.00
2013,09,26,15,49,18.10
2013,09,26,15,50,18.20
2013,09,26,15,51,18.20
2013,09,26,15,52,18.10
2013,09,26,15,53,18.10
2013,09,26,15,54,18.10
2013,09,26,15,55,18.10
2013,09,26,15,56,18.10
2013,09,26,15,57,18.10
2013,09,26,15,58,18.20
2013,09,26,15,59,18.20
2013,09,26,16,00,18.30
2013,09,26,16,01,18.30
2013,09,26,16,02,18.20
2013,09,26,16,03,18.20
2013,09,26,16,04,18.20
2013,09,26,16,05,18.10
2013,09,26,16,06,18.10
2013,09,26,16,07,18.10
2013,09,26,16,08,18.20
2013,09,26,16,09,18.20
2013,09,26,16,10,18.20
2013,09,26,16,11,18.20
2013,09,26,16,12,18.20
2013,09,26,16,13,18.30
2013,09,26,16,14,18.40
2013,09,26,16,15,18.50
2013,09,26,16,16,18.60
2013,09,26,16,17,18.80
2013,09,26,16,18,18.90
2013,09,26,16,19,18.90
2013,09,26,16,20,18.90
2013,09,26,16,21,19.00
2013,09,26,16,22,19.10
2013,09,26,16,23,19.20
2013,09,26,16,24,19.20
2013,09,26,16,25,19.20
2013,09,26,16,26,19.20
2013,09,26,16,27,19.20
2013,09,26,16,28,19.20
2013,09,26,16,29,19.30
2013,09,26,16,30,19.30
2013,09,26,16,31,19.40
2013,09,26,16,32,19.30
2013,09,26,16,33,19.20
2013,09,26,16,34,19.10
2013,09,26,16,35,19.00
2013,09,26,16,36,18.90
2013,09,26,16,37,18.90
2013,09,26,16,38,18.90
2013,09,26,16,39,18.80
2013,09,26,16,40,18.80
2013,09,26,16,41,18.70
2013,09,26,16,42,18.70
2013,09,26,16,43,18.70
2013,09,26,16,44,18.60
2013,09,26,16,45,18.50
2013,09,26,16,46,18.50
2013,09,26,16,47,18.40
2013,09,26,16,48,18.40
2013,09,26,16,49,18.50
2013,09,26,16,50,18.50
2013,09,26,16,51,18.40
2013,09,26,16,52,18.40
2013,09,26,16,53,18.40
2013,09,26,16,54,18.30
2013,09,26,16,55,18.20
2013,09,26,16,56,18.10
2013,09,26,16,57,18.10
2013,09,26,16,58,18.10
2013,09,26,16,59,18.10
2013,09,26,17,00,18.10
2013,09,26,17,01,18.10
2013,09,26,17,02,18.10
2013,09,26,17,03,18.10
2013,09,26,17,04,18.00
2013,09,26,17,05,18.00
2013,09,26,17,06,18.00
2013,09,26,17,07,18.00
2013,09,26,17,08,18.00
2013,09,26,17,09,18.00
2013,09,26,17,10,18.10
2013,09,26,17,11,18.10
2013,09,26,17,12,18.10
2013,09,26,17,13,18.20
2013,09,26,17,14,18.20
2013,09,26,17,15,18.20
2013,09,26,17,16,18.30
2013,09,26,17,17,18.30
2013,09,26,17,18,18.20
2013,09,26,17,19,18.20
2013,09,26,17,20,18.10
2013,09,26,17,21,18.00
2013,09,26,17,22,17.90
2013,09,26,17,23,17.70
2013,09,26,17,24,17.70
2013,09,26,17,25,17.60
2013,09,26,17,26,17.50
2013,09,26,17,27,17.40
2013,09,26,17,28,17.40
2013,09,26,17,29,17.30
2013,09,26,17,30,17.20
2013,09,26,17,31,17.10
2013,09,26,17,32,17.10
2013,09,26,17,33,17.00
2013,09,26,17,34,16.90
2013,09,26,17,35,16.80
2013,09,26,17,36,16.80
2013,09,26,17,37,16.70
2013,09,26,17,38,16.70
2013,09,26,17,39,16.70
2013,09,26,17,40,16.70
2013,09,26,17,41,16.60